Wind_Speed
8 9 7 7 4 10 7 1 4 2 2 11 4 5 12 13 13 13 9 7 6 7 17 17 4 29 30 31 27 24 22 20
7 9 8 6 5 3 2 4 3 5 3 5 4 4 11 13 14 19 15 13 9 9 18 28 6 17 30 27 27 27 23 21
9 6 7 3 3 5 5 5 5 5 5 9 11 4 8 12 16 17 16 21 9 11 18 23 28 21 24 24 24 26 26 24
8 3 10 6 7 7 4 4 4 5 3 4 15 23 18 15 18 20 22 18 13 18 21 24 21 26 18 24 22 27 20 27
8 7 2 6 8 6 4 1 5 4 4 11 16 15 16 16 20 18 14 9 11 14 19 30 31 25 30 29 25 27 24 19
1 5 9 7 7 9 3 3 5 4 7 7 7 5 6 9 10 11 18 16 16 11 16 23 20 32 29 25 27 22 18 16
6 10 8 13 13 8 8 8 2 6 7 7 4 8 10 7 10 12 12 10 10 12 13 14 23 20 25 23 18 17 14 11
6 13 13 6 10 13 11 10 12 20 7 3 6 12 8 8 7 7 9 9 7 5 10 10 12 19 23 23 19 15 15 14
1 11 11 6 12 16 7 23 2 6 10 12 5 10 8 13 8 8 13 11 6 7 8 12 13 11 12 20 18 13 14 13
2 7 2 4 9 12 11 17 19 12 11 12 15 10 6 4 13 13 11 10 9 10 10 10 10 12 13 16 17 16 13 13
3 1 5 4 7 9 9 6 16 13 9 8 11 6 7 14 12 11 8 13 16 15 13 10 11 14 18 21 21 22 20 19
3 4 2 6 11 11 11 5 9 8 12 16 3 9 8 15 16 16 17 16 16 15 14 14 13 13 16 18 19 19 16 16
4 2 4 7 8 9 4 3 2 9 7 15 13 3 10 13 13 19 18 18 17 14 14 14 13 15 18 16 17 14 13 13
4 2 2 3 8 3 5 3 4 12 5 10 17 10 13 11 11 17 17 15 14 14 14 15 16 17 18 17 14 12 12 11
6 6 7 5 4 3 5 7 5 6 17 14 16 18 16 12 10 14 18 18 16 15 14 11 10 12 16 15 13 12 11 11
5 3 6 5 5 9 7 7 7 8 8 8 12 16 17 12 8 15 17 19 18 15 12 11 10 10 14 14 12 10 9 8
4 6 6 6 6 8 8 8 7 8 8 9 7 11 13 15 14 16 19 20 18 16 13 11 11 10 12 12 11 9 8 7
3 7 6 6 8 9 7 3 7 8 9 10 12 7 12 8 18 21 19 21 19 18 17 13 11 13 13 12 11 11 9 8
3 6 6 7 8 7 6 6 7 8 9 8 15 14 18 13 17 20 24 20 18 20 20 17 14 11 9 8 9 9 8 5
Wind_Direction
199 222 216 222 194 181 101 131 98 109 238 295 61 119 175 175 165 186 190 208 183 173 146 155 120 168 172 182 176 179 185 191
294 210 221 176 167 352 42 144 141 103 6 270 284 172 177 174 202 194 183 213 158 164 133 138 220 172 172 179 186 183 189 191
327 183 172 286 234 236 141 154 158 136 208 197 207 239 224 205 198 199 197 202 158 171 143 149 216 218 169 174 194 193 194 188
285 285 169 201 228 222 139 248 187 161 157 197 175 194 195 206 202 205 203 190 157 149 158 158 193 203 200 211 208 204 205 189
328 347 353 194 266 266 246 331 261 146 198 196 204 193 183 189 187 209 196 146 150 146 160 178 210 210 215 211 213 204 181 170
211 216 285 295 254 266 265 252 263 247 142 198 228 52 37 68 71 46 193 176 166 177 189 197 209 187 182 186 191 172 160 157
312 324 283 313 305 282 261 252 121 133 126 96 48 74 78 68 71 70 95 114 159 181 205 192 194 170 167 170 182 178 174 181
26 358 1 324 325 352 301 265 119 114 87 113 114 94 87 79 87 107 108 91 89 104 109 102 126 169 180 175 186 193 194 178
1 346 326 69 354 355 19 29 14 121 154 174 138 143 170 148 151 131 130 128 133 106 92 91 88 108 153 178 174 182 179 176
5 337 201 280 3 10 64 46 21 49 151 160 157 166 136 155 117 117 122 124 122 117 104 108 120 110 118 149 172 175 180 166
94 54 304 1 3 1 349 23 34 34 356 131 145 123 53 120 120 119 107 100 102 109 115 110 102 116 124 121 131 137 127 133
89 78 45 246 305 316 316 5 13 39 43 17 258 104 130 102 101 99 104 109 108 109 112 112 114 121 121 118 123 120 122 126
143 119 263 248 289 317 70 242 287 128 117 89 31 332 118 115 106 104 107 110 113 116 111 116 120 127 119 119 116 122 131 136
92 90 281 342 296 243 181 65 119 120 153 137 135 151 105 101 116 112 116 116 116 113 121 130 133 136 128 127 131 133 132 127
129 209 245 216 299 336 120 76 25 61 148 157 134 133 133 141 131 134 132 131 131 128 126 129 134 138 133 131 132 129 127 125
88 252 197 189 85 65 53 54 27 32 20 118 124 138 139 137 132 133 127 128 133 133 135 137 138 141 142 141 146 143 145 140
110 173 124 124 111 96 51 30 27 36 44 26 119 133 146 139 125 124 124 135 143 144 142 142 144 153 158 155 154 155 158 159
183 165 137 160 134 125 121 108 61 49 42 20 29 81 101 110 135 141 142 149 154 154 156 162 167 167 167 174 181 181 181 184
136 129 109 133 128 115 128 131 96 86 66 48 36 74 104 110 131 144 143 159 164 163 164 168 173 178 182 181 185 206 223 242
Height
724 724 732 759 775 756 804 810 818 823 819 798 769 773 772 781 786 795 797 796 804 804 809 813 822 825 826 832 834 838 842 847
726 721 723 739 736 783 782 827 833 824 828 820 792 788 779 781 784 779 785 791 801 801 810 809 816 827 825 829 832 835 840 845
735 739 749 751 761 757 770 777 804 827 820 786 784 782 784 775 778 778 783 785 797 801 808 807 822 828 822 823 829 834 837 843
758 719 718 730 746 753 787 779 777 781 808 769 767 766 767 771 772 773 774 783 795 799 807 811 820 820 816 818 827 832 835 838
770 747 728 743 739 740 747 754 773 784 802 763 760 755 752 758 765 770 776 785 790 795 801 802 809 818 818 820 827 833 833 838
804 782 765 762 744 738 748 774 770 765 776 772 763 766 764 773 773 774 770 783 790 795 794 797 807 809 812 820 825 829 831 836
766 760 753 750 749 743 752 751 761 761 764 774 777 767 776 779 777 781 785 788 792 794 794 799 799 804 811 817 823 827 832 833
777 772 765 766 749 743 737 734 749 759 786 780 771 769 770 776 780 788 792 794 796 801 803 793 802 808 814 817 824 827 830 833
792 786 777 780 782 765 762 757 738 761 769 777 777 771 764 763 773 786 793 799 801 804 804 805 805 809 813 817 821 824 828 832
811 797 804 794 778 770 775 774 770 761 765 762 764 763 761 766 772 785 794 799 803 806 807 807 809 810 814 816 820 824 828 832
821 819 799 788 788 786 787 792 778 782 773 765 761 761 767 769 777 785 793 799 802 806 808 810 811 811 815 815 821 825 828 831
822 825 824 809 781 776 775 805 780 783 789 787 779 787 782 776 782 790 797 803 804 807 809 811 814 814 815 819 822 825 829 831
814 818 809 784 777 777 805 807 780 787 795 796 807 793 789 792 793 795 799 805 810 812 812 812 814 817 819 823 825 828 831 834
823 830 820 772 778 789 780 769 774 786 790 789 792 793 790 797 803 800 805 809 810 814 816 818 819 820 820 824 828 831 832 834
801 812 789 777 777 768 769 774 775 777 777 769 785 791 794 805 803 807 810 812 816 818 819 820 820 821 824 826 829 831 834 835
786 782 779 774 772 773 773 775 774 774 775 774 783 790 793 799 803 809 811 813 815 819 821 823 825 826 827 829 832 833 835 836
780 778 773 771 773 775 775 774 776 777 779 782 780 786 792 795 799 804 807 813 817 822 826 828 829 830 831 832 834 837 837 838
788 774 776 777 774 775 778 779 780 781 782 781 781 780 783 790 793 798 806 812 817 820 824 828 830 833 834 836 837 838 840 839
770 764 767 768 771 774 779 780 781 783 785 787 788 789 790 796 800 803 805 812 815 818 822 826 829 832 834 835 836 837 838 838